Phoenix-Mesa Gateway Airport, AZ

5:07 PM MST on October 22, 2017 (GMT -0700)
Phoenix-Mesa Gateway Airport

Weather History for KIWA - April, 2014

Change the Weather History Date:

Wednesday, April 9, 2014

  Actual Average Record
Temperature  
Mean Temperature 74 °F -  
Max Temperature 93 °F 76 °F 95 °F (2003)
Min Temperature 55 °F 52 °F 44 °F (2001)
Cooling Degree Days 9    
Growing Degree Days 24 (Base 50)    
Moisture  
Dew Point 22 °F    
Average Humidity 19    
Maximum Humidity 36    
Minimum Humidity 7    
Precipitation  
Precipitation 0.00 in - - ()
Sea Level Pressure  
Sea Level Pressure 30.01 in    
Wind  
Wind Speed 7 mph (ESE)    
Max Wind Speed 9 mph    
Max Gust Speed -    
Visibility 12 miles    
Events      
Averages and records for this station are not official NWS values.
T = Trace of Precipitation, MM = Missing Value Source: NWS Daily Summary

Daily Weather History Graph

Daily Weather History Graph

Search for Another Location

Airport or City:

Trip Planner

Search our weather history database for the weather conditions in past years. The results will help you decide how hot, cold, wet, or windy it might be!

Date:

Astronomy

Apr. 09, 2014 Rise Set
Actual Time 6:03 AM MST 6:52 PM MST
Civil Twilight 5:38 AM MST 7:18 PM MST
Nautical Twilight 5:08 AM MST 7:48 PM MST
Astronomical Twilight 4:38 AM MST 8:18 PM MST
Moon 1:59 PM MST (4/9) 2:39 AM MST (4/9)
Length of Visible Light 13h 39m
Length of Day
12h 49m
Waxing Gibbous, 72% of the Moon is Illuminated
Apr 9
Waxing Gibbous
Apr 15
Full
Apr 22
Last Quarter
Apr 28
New
May 6
First Quarter

Hourly Weather History & Observations

Time (MST) Temp. Dew Point Humidity Pressure Visibility Wind Dir Wind Speed Gust Speed Precip Events Conditions
12:15 AM 60.8 °F 19.4 °F 20% 30.04 in 10.0 mi ESE 8.1 mph - N/A   Clear
12:35 AM 60.8 °F 21.2 °F 22% 30.05 in 10.0 mi ESE 6.9 mph - N/A   Clear
12:55 AM 60.8 °F 19.4 °F 20% 30.04 in 10.0 mi ESE 6.9 mph - N/A   Clear
1:15 AM 60.8 °F 19.4 °F 20% 30.04 in 10.0 mi SE 9.2 mph - N/A   Clear
1:35 AM 62.6 °F 21.2 °F 20% 30.04 in 10.0 mi SE 9.2 mph - N/A   Clear
1:55 AM 60.8 °F 21.2 °F 22% 30.04 in 10.0 mi SE 8.1 mph - N/A   Clear
2:15 AM 59.0 °F 24.8 °F 27% 30.04 in 10.0 mi SE 8.1 mph - N/A   Clear
2:35 AM 59.0 °F 24.8 °F 27% 30.03 in 10.0 mi ESE 6.9 mph - N/A   Clear
2:55 AM 59.0 °F 23.0 °F 25% 30.02 in 10.0 mi ESE 9.2 mph - N/A   Clear
3:15 AM 59.0 °F 21.2 °F 23% 30.02 in 10.0 mi ESE 9.2 mph - N/A   Clear
3:35 AM 57.2 °F 21.2 °F 25% 30.02 in 10.0 mi East 9.2 mph - N/A   Clear
3:55 AM 60.8 °F 19.4 °F 20% 30.02 in 10.0 mi ESE 9.2 mph - N/A   Clear
4:15 AM 59.0 °F 21.2 °F 23% 30.02 in 10.0 mi SE 6.9 mph - N/A   Clear
4:35 AM 57.2 °F 24.8 °F 29% 30.02 in 10.0 mi ESE 8.1 mph - N/A   Clear
4:47 AM 57.2 °F 26.6 °F 31% 30.02 in 20.0 mi East 4.6 mph - N/A   Mostly Cloudy
4:55 AM 57.2 °F 26.6 °F 31% 30.02 in 10.0 mi SE 6.9 mph - N/A   Clear
5:15 AM 55.4 °F 28.4 °F 36% 30.03 in 10.0 mi SE 6.9 mph - N/A   Clear
5:35 AM 57.2 °F 26.6 °F 31% 30.03 in 10.0 mi SE 6.9 mph - N/A   Clear
5:47 AM 57.2 °F 23.0 °F 27% 30.03 in 20.0 mi East 4.6 mph - N/A   Scattered Clouds
6:50 AM 57.2 °F 19.4 °F 23% 30.06 in 45.0 mi East 5.8 mph - N/A   Scattered Clouds
7:49 AM 64.4 °F 21.2 °F 19% 30.08 in 45.0 mi East 6.9 mph - N/A   Scattered Clouds
8:50 AM 73.4 °F 28.4 °F 19% 30.08 in 45.0 mi ESE 9.2 mph - N/A   Scattered Clouds
9:47 AM 78.8 °F 26.6 °F 15% 30.09 in 45.0 mi Variable 3.5 mph - N/A   Scattered Clouds
10:47 AM 84.2 °F 19.4 °F 9% 30.08 in 45.0 mi Calm Calm - N/A   Scattered Clouds
12:47 PM 87.8 °F 21.2 °F 9% 30.04 in 45.0 mi SW 4.6 mph - N/A   Mostly Cloudy
1:47 PM 89.6 °F 19.4 °F 8% 30.01 in 35.0 mi WSW 4.6 mph - N/A   Mostly Cloudy
2:47 PM 91.4 °F 19.4 °F 7% 29.98 in 35.0 mi WSW 8.1 mph - N/A   Mostly Cloudy
3:47 PM 93.2 °F 19.4 °F 7% 29.97 in 45.0 mi WSW 8.1 mph - N/A   Scattered Clouds
4:47 PM 91.4 °F 19.4 °F 7% 29.96 in 45.0 mi West 5.8 mph - N/A   Scattered Clouds
5:47 PM 89.6 °F 19.4 °F 8% 29.94 in 45.0 mi West 5.8 mph - N/A   Scattered Clouds
7:50 PM 78.8 °F 24.8 °F 14% 29.95 in 20.0 mi West 5.8 mph - N/A   Mostly Cloudy
7:55 PM 78.8 °F 26.6 °F 15% 29.95 in 10.0 mi Calm Calm - N/A   Clear
8:15 PM 73.4 °F 28.4 °F 19% 29.96 in 10.0 mi SE 5.8 mph - N/A   Clear
8:35 PM 75.2 °F 26.6 °F 17% 29.97 in 10.0 mi SE 3.5 mph - N/A   Clear
8:55 PM 71.6 °F 26.6 °F 19% 29.97 in 10.0 mi ESE 5.8 mph - N/A   Clear
9:15 PM 71.6 °F 23.0 °F 16% 29.97 in 10.0 mi East 6.9 mph - N/A   Clear
9:35 PM 71.6 °F 21.2 °F 15% 29.98 in 10.0 mi East 5.8 mph - N/A   Clear
9:47 PM 73.4 °F 19.4 °F 13% 29.98 in 20.0 mi Variable 4.6 mph - N/A   Mostly Cloudy
9:55 PM 69.8 °F 19.4 °F 15% 29.98 in 10.0 mi East 9.2 mph - N/A   Clear
10:15 PM 69.8 °F 19.4 °F 15% 29.98 in 10.0 mi ESE 5.8 mph - N/A   Clear
10:35 PM 68.0 °F 19.4 °F 16% 29.98 in 10.0 mi ESE 6.9 mph - N/A   Clear
10:47 PM 68.0 °F 17.6 °F 15% 29.98 in 20.0 mi East 5.8 mph - N/A   Clear
10:55 PM 64.4 °F 21.2 °F 19% 29.98 in 10.0 mi ESE 8.1 mph - N/A   Clear
11:15 PM 64.4 °F 24.8 °F 22% 29.98 in 10.0 mi ESE 6.9 mph - N/A   Clear
11:35 PM 64.4 °F 23.0 °F 21% 29.98 in 10.0 mi ESE 6.9 mph - N/A   Clear
11:47 PM 66.2 °F 23.0 °F 19% 29.98 in 20.0 mi East 6.9 mph - N/A   Clear
11:55 PM 64.4 °F 23.0 °F 21% 29.98 in 10.0 mi SE 9.2 mph - N/A   Clear